Regional Weather Roundup
Issued by NWS

Home | Current Version | Previous Version | Text Only | Print | Product List | Glossary Off
Versions: 1 2 3 4 5 6 7 8 9 10 11 12 13 14 15 16 17 18 19 20 21 22 23 24 25 26 27 28 29 30 31 32 33 34 35 36 37 38 39 40 41 42 43 44 45 46 47 48 49 50

000
ASUS43 KLMK 251502
RWRKY
KENTUCKY REGIONAL WEATHER ROUNDUP
NATIONAL WEATHER SERVICE LOUISVILLE KY
1100 AM EDT SAT OCT 25 2014

NOTE "FAIR" INDICATES FEW OR NO CLOUDS BELOW 12,000 FEET
WITH NO SIGNIFICANT WEATHER AND/OR OBSTRUCTIONS TO VISIBILITY.

KYZ001>023-026-027-061>063-070>075-251600-
WESTERN AND SOUTH CENTRAL KENTUCKY

CITY           SKY/WX    TMP DP  RH WIND       PRES   REMARKS
PADUCAH        SUNNY     67  59  75 W9        30.05S
HENDERSON      CLOUDY   N/A N/A N/A W7        30.03S
OWENSBORO      MOSUNNY   63  57  80 SW6       30.04S
HOPKINSVILLE   MOSUNNY   65  58  78 SW8       30.06S
BOWLING GREEN  MOSUNNY   62  53  72 SW7       30.07S
GLASGOW        CLOUDY    56  51  85 SW5       30.08S
$$

KYZ024-025-028>034-038-045-046-053-251600-
NORTH CENTRAL KENTUCKY

CITY           SKY/WX    TMP DP  RH WIND       PRES   REMARKS
LOUISVILLE/SDF CLOUDY    61  53  75 SW7       30.03S
LOUISVILLE/LOU CLOUDY    59  52  77 SW3       30.04S
FORT KNOX      PTSUNNY   59  53  80 S6        30.03S
$$

KYZ035>037-039>044-047>052-055>060-089>105-251600-
NORTHEAST KENTUCKY

CITY           SKY/WX    TMP DP  RH WIND       PRES   REMARKS
LEXINGTON      CLOUDY    58  51  78 SW9       30.04F
COVINGTON      CLOUDY    58  50  75 SW8       30.00S
FRANKFORT      CLOUDY    57  50  77 SW12      30.03S
$$

KYZ054-064>069-076>088-106>120-251600-
SOUTHEAST KENTUCKY

CITY           SKY/WX    TMP DP  RH WIND       PRES   REMARKS
JACKSON        SUNNY     54  44  69 CALM      30.07S
LONDON         SUNNY     56  46  69 W6        30.10R
SOMERSET       PTSUNNY   54  46  76 S3        30.10F
MIDDLESBORO    MOSUNNY   45  44  96 CALM      30.12F
MONTICELLO     SUNNY     61  51  69 S6        30.10F HAZE
$$




USA.gov is the U.S. government's official web portal to all federal, state and local government web resources and services.